Weather History for KDIJ - August, 2013

Change the Weather History Date:

Wednesday, August 21, 2013

  Actual Average (KRXE) Record (KRXE)
Temperature  
Mean Temperature 68 °F 66 °F  
Max Temperature 82 °F 83 °F 94 °F (2009)
Min Temperature 54 °F 48 °F 41 °F (2000)
Degree Days  
Heating Degree Days 0 2  
Month to date heating degree days 15  
Since 1 June heating degree days 217  
Since 1 July heating degree days 45  
Cooling Degree Days 3 2  
Month to date cooling degree days 72  
Year to date cooling degree days 186  
Since 1 June cooling degree days 182  
Growing Degree Days 18 (Base 50)    
Moisture  
Dew Point 47 °F    
Average Humidity 52    
Maximum Humidity 72    
Minimum Humidity 28    
Precipitation  
Precipitation 0.00 in 0.03 in 0.44 in (2014)
Month to date precipitation 0.59  
Year to date precipitation 8.55  
Sea Level Pressure  
Sea Level Pressure 30.00 in    
Wind  
Wind Speed 5 mph (East)    
Max Wind Speed 16 mph    
Max Gust Speed 23 mph    
Visibility 9 miles    
Events Rain , Thunderstorm    
T = Trace of Precipitation, MM = Missing Value Source: NWS Daily Summary

Daily Weather History Graph

Daily Weather History Graph

Search for Another Location

Airport or City:

Trip Planner

Search our weather history database for the weather conditions in past years. The results will help you decide how hot, cold, wet, or windy it might be!

Date:

Astronomy

Aug. 21, 2013 Rise Set
Actual Time 6:35 AM MDT 8:18 PM MDT
Civil Twilight 6:05 AM MDT 8:48 PM MDT
Nautical Twilight 5:28 AM MDT 9:25 PM MDT
Astronomical Twilight 4:48 AM MDT 10:05 PM MDT
Moon 8:24 PM MDT (8/21) 7:23 AM MDT (8/21)
Length of Visible Light 14h 43m
Length of Day
13h 42m
Full, 99% of the Moon is Illuminated
Aug 21
Full
Aug 28
Last Quarter
Sep 5
New
Sep 12
First Quarter
Sep 19
Full

Hourly Weather History & Observations

Time (MDT) Temp. Dew Point Humidity Pressure Visibility Wind Dir Wind Speed Gust Speed Precip Events Conditions
12:56 AM 63.0 °F 41.9 °F 46% 29.91 in 10.0 mi Calm Calm - N/A   Clear
1:56 AM 59.9 °F 41.9 °F 51% 29.92 in 9.0 mi North 3.5 mph - N/A   Clear
2:56 AM 54.0 °F 39.9 °F 59% 29.93 in 10.0 mi Calm Calm - N/A   Clear
3:56 AM 55.9 °F 41.0 °F 57% 29.93 in 10.0 mi ENE 8.1 mph - N/A   Clear
4:56 AM 54.0 °F 41.0 °F 62% 29.95 in 10.0 mi East 4.6 mph - N/A   Clear
5:56 AM 57.9 °F 43.0 °F 58% 29.94 in 10.0 mi SW 3.5 mph - N/A   Clear
6:56 AM 54.0 °F 41.9 °F 64% 29.98 in 9.0 mi Calm Calm - N/A   Clear
7:56 AM 59.9 °F 45.0 °F 58% 29.99 in 9.0 mi Calm Calm - N/A   Clear
8:56 AM 70.9 °F 43.9 °F 38% 29.99 in 8.0 mi Calm Calm - N/A   Partly Cloudy
9:56 AM 72.9 °F 43.9 °F 35% 29.99 in 10.0 mi SSW 8.1 mph - N/A   Partly Cloudy
10:56 AM 75.9 °F 45.9 °F 34% 30.00 in 9.0 mi SW 9.2 mph - N/A   Clear
11:56 AM 75.9 °F 46.9 °F 36% 30.00 in 8.0 mi SSW 8.1 mph - N/A   Partly Cloudy
12:56 PM 77.0 °F 47.8 °F 36% 30.00 in 9.0 mi SSW 11.5 mph - N/A   Partly Cloudy
1:56 PM 77.9 °F 46.9 °F 33% 30.00 in 10.0 mi SSW 9.2 mph - 0.00 in   Scattered Clouds
2:56 PM 77.9 °F 46.9 °F 33% 29.99 in 10.0 mi Variable 3.5 mph - N/A   Partly Cloudy
3:26 PM 82.4 °F 46.4 °F 28% 30.23 in 9.0 mi NW 6.9 mph - N/A Thunderstorm Thunderstorm
3:56 PM 77.9 °F 45.9 °F 32% 29.97 in 9.0 mi SW 8.1 mph - N/A Thunderstorm Scattered Clouds
4:32 PM 71.6 °F 53.6 °F 53% 30.23 in 4.0 mi North 8.1 mph - 0.00 in Rain , Thunderstorm Light Thunderstorms and Rain
4:56 PM 66.9 °F 54.9 °F 65% 30.01 in 6.0 mi NE 16.1 mph 23.0 mph 0.00 in Thunderstorm Unknown
5:56 PM 66.9 °F 52.9 °F 61% 30.01 in 9.0 mi NE 12.7 mph - N/A   Mostly Cloudy
6:56 PM 68.0 °F 52.9 °F 58% 30.02 in 9.0 mi NNE 11.5 mph - N/A   Clear
7:56 PM 64.9 °F 52.0 °F 63% 30.00 in 8.0 mi North 8.1 mph - N/A   Clear
8:56 PM 61.9 °F 52.0 °F 70% 29.99 in 10.0 mi SSE 6.9 mph - N/A   Mostly Cloudy
9:56 PM 61.0 °F 50.9 °F 69% 30.01 in 10.0 mi ESE 5.8 mph - N/A   Clear
10:56 PM 59.9 °F 50.9 °F 72% 30.01 in 10.0 mi ENE 5.8 mph - N/A   Partly Cloudy
11:56 PM 61.0 °F 50.9 °F 69% 30.00 in 10.0 mi East 5.8 mph - N/A   Mostly Cloudy